Location: *
(46.3500°N, 10.9000°E)
Time: 22:05:11
(UTC+00:00)

Explorer 7 - Pass Details

Date: 19 April 2021
Orbit: 484 x 677 km, 50.3° (Epoch: 05 May)

Event Time Altitude Azimuth Distance (km) Brightness Sun altitude
Rises 22:10:33 0° 278° (W) 2,734 10.7 -30.3°
Reaches altitude 10° 22:12:47 10° 284° (WNW) 1,871 9.8 -30.5°
Enters shadow 22:13:57 18° 290° (WNW) 1,450 9.3 -30.5°
Maximum altitude 22:16:58 50° 0° (N) 767 - -30.7°
Drops below altitude 10° 22:21:25 10° 76° (ENE) 1,992 - -30.9°
Sets 22:23:52 0° 82° (E) 2,930 - -31.0°
